Flag for India Weather past 2 weeks in Pudukkottai, Tamil Nadu, India

Now
99 °F

Broken clouds.


Feels Like: 104 °F
Forecast: 82 / 96 °F
Wind: 13 mph from West

Location: Tiruchchirapalli

Current Time: Jul 25, 2014 at 4:58:55 PM

Latest Report: Jul 25, 2014 at 3:40 PM


Visibility: 5 mi

Pressure: 29.71 "Hg

Humidity: 37%

Dew point: 68 °F

Location of PudukkottaiLocation

Historic Weather in Pudukkottai — Graph

°F

Pudukkottai temperature yesterday

Maximum temperature yesterday: 100 °F (at 3:40 PM)
Minimum temperature yesterday: 82 °F (at 12:40 AM)
Average temperature yesterday: 89 °F

Past Weeks' High & Low Weather Summary

 TemperatureHumidityPressure
High100 °F (Jul 15, 3:40 PM)74% (Jul 11, 2:40 AM)29.83 "Hg (Jul 11, 2:40 AM)
Low81 °F (Jul 11, 2:40 AM)33% (Jul 17, 1:40 PM)29.62 "Hg (Jul 13, 4:40 PM)
Average88 °F53%29.72 "Hg
* Reported Jul 10 3:40 PM — Jul 25 3:40 PM, Pudukkottai, Weather by CustomWeather, © 2014

Note: Actual official high and low records may vary slightly from our data, if they occured in-between our weather recording intervals... More about our weather records

Advertising

Pudukkottai weather history for previous 24 hours

 ConditionsComfort  
Time TempWeatherWind HumidityBarometerVisibility
3:40 PM
Jul 25
99 °FBroken clouds.13 mph37%29.71 "Hg5 mi
2:40 PM99 °FBroken clouds.15 mph37%29.71 "Hg5 mi
1:40 PM99 °FScattered clouds.17 mph37%29.74 "Hg5 mi
12:40 PM97 °FScattered clouds.16 mph39%29.77 "Hg5 mi
11:40 AM95 °FBroken clouds.17 mph41%29.80 "Hg5 mi
10:40 AM93 °FPartly sunny.18 mph44%29.83 "Hg5 mi
9:40 AM90 °FPartly sunny.15 mph52%29.83 "Hg4 mi
8:40 AM86 °FScattered clouds.15 mph59%29.83 "Hg4 mi
7:40 AM84 °FScattered clouds.15 mph66%29.80 "Hg4 mi
6:40 AM82 °FScattered clouds.14 mph66%29.80 "Hg4 mi
5:40 AM82 °FPassing clouds.13 mph66%29.77 "Hg4 mi
4:40 AM82 °FPassing clouds.12 mph66%29.77 "Hg4 mi
3:40 AM82 °FPassing clouds.12 mph66%29.77 "Hg4 mi
2:40 AM82 °FPassing clouds.12 mph66%29.77 "Hg4 mi
1:40 AM84 °FPassing clouds.15 mph58%29.77 "Hg4 mi
12:40 AM84 °FPassing clouds.14 mph58%29.80 "Hg4 mi
11:40 PM
Jul 24
84 °FPassing clouds.15 mph58%29.80 "Hg4 mi
10:40 PM86 °FPassing clouds.15 mph55%29.80 "Hg4 mi
9:40 PM86 °FPassing clouds.14 mph55%29.80 "Hg4 mi
8:40 PM88 °FPassing clouds.16 mph52%29.77 "Hg4 mi
7:40 PM88 °FPassing clouds.17 mph52%29.74 "Hg4 mi
6:40 PM93 °FScattered clouds.16 mph44%29.71 "Hg4 mi
5:40 PM97 °FPassing clouds.18 mph39%29.68 "Hg5 mi
4:40 PM97 °FPassing clouds.22 mph39%29.68 "Hg5 mi
Weather by CustomWeather, © 2014

See weather overviewHow to use our weather pages